Tracking 29090 objects as of 15-Jul-2024
HD Live streaming from Space Station
objects crossing your sky now

KL-BETA A

Track KL-BETA A now!
10-day predictions


NORAD ID: 49059
Int'l Code: 2021-070A
Perigee: 919.5 km
Apogee: 923.8 km
Inclination: 89.0 °
Period: 103.3 minutes
Semi major axis: 7292 km
RCS: Unknown
Launch date: August 4, 2021
Source: People's Republic of China (PRC)
Launch site: Taiyaun Space Center, China (TSC)
Your satellite tracking list
Your tracking list is empty




NASA's NSSDC Master Catalog

Two Line Element Set (TLE):
1 49059U 21070A   24197.55062684  .00000208  00000-0  14690-3 0  9999
2 49059  88.9881 295.6218 0002900  83.1824 276.9681 13.94035137150169
Source of the keplerian elements: AFSPC